Probability
0 0 0 0 0 0 0 0 1 3 8 11 16 21 27 36 44 53 58 60 64 64 62 60 57 57 58 59 62 60 56 54 52 49 43 37 33 32 30 27 24 22 21 20
0 0 0 0 0 0 0 0 1 5 10 16 23 31 40 46 50 56 61 65 67 68 66 63 60 59 59 60 60 58 55 52 51 47 40 33 30 29 27 26 24 22 20 18
0 0 0 0 0 0 1 2 4 8 14 21 31 42 52 57 57 59 65 70 73 73 71 68 64 62 59 57 57 55 52 49 48 45 36 28 25 24 23 22 21 19 17 16
0 0 0 0 0 1 3 5 8 12 18 25 35 44 54 62 64 64 67 71 74 73 71 69 67 63 57 54 53 51 48 46 45 41 34 26 22 21 20 19 18 17 15 14
0 0 0 0 0 1 3 6 10 15 23 30 35 42 55 66 71 70 70 71 71 69 68 67 67 64 58 54 52 50 47 46 44 39 31 26 23 21 20 19 18 17 15 13
0 0 0 1 2 1 3 9 15 22 32 40 43 49 61 71 73 72 70 71 70 67 68 69 68 65 60 57 55 52 49 47 43 37 30 27 25 22 20 20 19 17 15 13
0 0 2 5 7 10 17 26 30 35 44 54 61 66 71 74 72 68 67 69 68 68 69 69 68 66 62 60 58 54 50 47 42 35 28 25 24 21 19 19 19 16 13 11
5 8 15 22 26 32 43 49 48 49 55 64 73 78 77 74 71 67 66 67 68 69 68 67 67 66 64 62 60 55 49 43 38 32 26 23 23 21 19 19 19 16 12 10
18 25 36 44 50 54 58 57 54 55 59 64 72 77 77 75 73 71 69 69 68 67 66 65 65 65 64 63 60 53 44 36 30 26 23 22 22 21 20 19 18 15 12 11
37 41 46 52 57 60 57 53 52 53 57 62 69 72 74 75 75 74 72 69 67 64 63 62 62 61 61 60 55 48 38 30 24 22 21 21 21 21 20 19 17 16 14 12
48 48 48 50 55 57 55 52 50 50 54 60 65 68 70 71 72 70 68 66 63 60 58 57 56 54 54 53 49 41 33 26 22 21 22 22 20 18 17 16 14 13 12 12
46 47 47 49 53 54 53 52 51 51 54 58 62 63 63 63 62 60 59 59 58 54 51 50 49 49 48 46 42 36 29 24 21 22 23 22 19 16 12 10 8 7 7 8
41 41 42 45 48 48 49 51 52 54 56 58 58 55 52 52 53 51 50 51 50 48 46 43 43 44 44 40 37 33 26 21 20 20 21 20 18 15 12 8 5 4 3 3
34 36 38 39 40 42 46 50 53 55 57 56 51 46 43 44 46 46 45 44 43 42 40 35 33 35 36 35 33 29 23 19 18 18 17 17 17 15 12 10 8 6 3 1
27 30 33 33 34 36 40 46 51 53 53 50 45 42 41 41 41 41 41 40 38 37 34 29 26 26 28 29 29 25 20 17 16 16 14 14 15 13 11 9 9 8 5 3
22 24 25 27 28 29 32 38 44 48 47 46 42 39 37 36 37 38 38 36 35 34 33 30 26 25 26 27 26 21 17 14 14 13 12 12 13 11 9 8 8 7 5 5
19 19 20 22 24 25 28 33 38 41 42 42 39 33 29 30 33 35 34 32 30 31 33 32 29 27 26 25 22 16 12 10 10 10 11 11 11 10 8 7 6 5 4 4
13 15 17 20 24 27 29 32 34 35 37 38 34 28 25 25 28 29 27 26 26 27 29 29 26 24 23 22 19 13 9 7 8 9 10 10 9 9 8 7 6 5 4 3
10 13 16 20 25 28 30 31 31 31 33 33 30 26 24 23 24 23 21 20 22 24 26 24 17 16 17 16 13 11 8 6 7 8 9 8 8 8 7 6 6 5 3 1
11 12 15 19 23 24 27 29 29 28 29 28 26 23 21 20 20 19 17 17 20 23 22 17 12 10 10 8 6 5 6 5 6 6 7 7 7 7 7 5 4 3 1 0
13 14 16 16 15 16 21 26 26 24 22 22 21 18 17 17 17 16 14 15 17 18 14 11 9 7 4 2 1 1 2 3 4 4 5 6 6 7 7 6 3 2 0 0
18 18 18 15 12 14 19 23 22 19 17 17 16 15 16 18 16 13 12 14 13 10 7 7 6 3 0 0 0 0 0 1 2 3 4 4 5 6 7 6 4 2 0 0
26 26 23 18 17 19 21 21 20 20 19 18 18 17 19 22 19 13 11 10 8 4 3 4 2 1 0 0 0 0 0 0 1 2 2 2 3 5 5 4 3 1 0 0
26 27 25 19 17 18 18 18 18 20 20 20 21 21 23 23 19 13 6 4 3 1 1 1 0 0 0 0 0 0 0 0 0 0 1 1 2 3 3 2 1 0 0 0
18 20 20 16 13 12 12 12 14 15 15 16 18 20 21 20 17 12 6 2 0 0 0 0 0 0 0 0 0 0 0 0 0 0 0 1 1 1 1 0 0 0 0 0
11 13 13 11 9 8 7 8 10 11 11 12 13 14 14 13 13 11 8 4 1 0 0 0 0 0 0 0 0 0 1 1 0 0 0 0 0 0 0 0 0 0 0 0
8 10 10 7 6 6 5 6 8 10 10 11 10 8 7 7 8 8 7 4 1 0 0 0 0 0 0 0 0 1 2 2 1 0 0 0 0 0 0 0 0 0 0 0
Wind_Speed
16 15 12 13 15 16 15 13 10 6 6 6 7 7 10 11 11 11 11 10 9 8 7 7 7 7 6 6 5 6 6 6 5 5 4 4 3 3 3 3 3 3 4 4
15 16 15 13 14 14 14 13 11 8 4 3 5 8 9 9 10 10 10 10 9 8 8 7 6 6 7 6 6 6 5 5 5 5 5 4 4 4 4 4 4 4 4 5
13 15 15 16 13 13 13 12 10 9 4 6 6 8 9 8 8 8 9 9 9 9 8 7 6 6 7 7 7 6 5 5 5 5 5 4 5 5 4 4 4 5 5 6
11 12 16 11 11 11 10 8 6 5 4 6 8 9 8 7 7 7 7 8 8 8 8 8 7 6 6 7 7 6 6 5 5 5 5 5 5 5 5 4 4 4 5 5
10 13 13 11 9 10 9 7 6 4 3 5 8 9 8 7 6 6 6 6 7 8 8 8 7 7 6 6 6 6 6 5 5 5 5 5 5 5 4 4 4 4 4 4
10 12 13 8 8 7 7 6 2 2 4 4 4 4 5 6 6 5 6 6 6 7 8 8 7 7 6 6 6 6 6 5 5 5 5 5 5 5 4 4 4 4 4 4
13 13 9 4 5 6 8 3 2 2 4 5 5 5 7 8 7 6 6 7 7 7 7 7 6 7 6 6 5 5 6 6 6 6 5 5 5 4 4 4 4 4 4 4
12 13 6 2 3 1 3 5 6 6 8 9 9 10 8 8 8 8 7 7 7 7 7 6 6 6 6 5 5 5 6 6 6 5 5 5 5 4 4 4 4 4 3 4
4 3 3 7 8 7 6 6 7 7 7 8 9 9 8 7 7 7 7 7 7 7 7 6 5 5 5 5 5 6 6 5 5 5 4 5 5 4 4 3 3 3 3 3
3 4 4 6 7 7 7 6 7 7 6 8 9 9 8 7 6 6 6 6 6 7 7 6 5 5 5 5 5 5 5 5 4 4 4 4 3 2 2 2 2 2 3 3
3 4 5 4 6 7 6 6 7 6 6 7 7 7 7 6 6 5 5 5 6 6 6 6 6 5 5 5 5 5 5 4 4 4 4 4 4 3 2 3 2 1 1 2
3 3 2 4 4 5 5 5 5 5 5 6 6 7 7 6 5 5 4 4 5 5 6 6 6 5 5 5 5 5 5 4 4 4 4 5 5 5 9 6 7 7 6 4
3 4 5 5 4 4 3 4 4 4 4 6 6 6 7 6 5 5 5 4 5 5 5 5 5 5 4 5 5 4 3 4 3 4 4 4 5 5 5 4 6 7 6 6
5 5 5 4 4 3 3 3 5 5 5 5 6 6 7 6 5 5 4 4 4 5 5 4 4 4 4 4 4 4 3 3 3 3 4 4 5 5 5 5 4 4 3 4
3 2 3 3 3 2 2 3 4 4 5 5 6 6 6 6 5 4 4 4 4 4 4 4 4 3 3 4 4 3 3 2 2 3 3 3 4 4 4 5 5 5 5 4
1 1 2 2 1 1 1 3 4 4 4 5 5 5 5 5 5 4 4 3 4 4 4 4 3 3 3 4 3 3 2 3 2 2 3 4 4 3 4 4 4 5 5 5
2 2 2 2 1 1 1 1 2 3 4 5 5 5 5 5 5 4 3 3 3 3 3 3 3 3 3 4 3 2 2 3 3 3 3 3 3 3 3 3 4 4 4 5
3 2 2 2 2 1 1 1 2 3 4 5 5 5 5 5 4 4 4 4 4 3 3 3 3 3 3 3 2 2 2 2 2 3 2 2 3 3 4 4 3 4 4 6
2 2 1 1 1 1 1 1 1 2 3 4 5 4 4 4 4 4 4 4 4 4 3 4 4 4 3 3 2 2 3 3 3 3 3 3 3 3 3 3 3 3 4 4
2 2 1 2 2 2 1 1 1 2 2 3 3 3 3 3 3 3 3 3 2 2 3 5 4 3 3 3 2 2 3 3 4 3 3 3 3 3 3 3 3 3 3 3
2 2 1 2 2 2 1 1 2 2 2 3 3 3 3 3 3 3 3 2 2 3 4 5 3 3 3 3 3 3 3 3 4 4 4 4 3 3 3 2 2 2 2 2
1 1 1 1 1 1 1 0 1 2 2 2 3 3 3 3 4 4 3 2 3 4 3 4 3 3 3 3 3 3 3 3 3 3 3 3 3 2 2 2 2 2 2 2
1 1 1 1 1 2 2 1 1 1 2 1 2 2 3 2 2 2 2 2 4 5 3 3 4 5 3 2 2 2 2 3 2 2 3 2 2 2 2 2 2 2 1 1
2 2 2 2 1 1 1 1 1 0 1 1 2 2 2 2 2 2 2 4 5 6 3 5 6 5 3 3 2 1 2 2 2 2 2 2 2 2 2 2 2 2 2 2
1 1 1 1 1 0 0 0 1 2 2 1 1 1 2 2 2 2 3 5 6 6 4 5 6 5 4 2 2 1 1 1 0 0 0 1 1 2 2 2 2 2 2 1
1 0 1 1 1 1 1 1 1 1 1 1 1 1 1 2 3 3 3 5 6 4 3 4 4 4 3 2 2 2 2 2 1 1 1 1 2 2 2 2 2 2 1 1
1 0 1 1 0 1 0 0 1 1 1 1 1 1 1 2 3 3 4 4 4 3 3 3 3 3 3 3 2 2 2 2 2 2 2 2 1 1 1 1 1 1 1 2
Wind_Direction
260 265 248 226 220 227 236 250 255 232 208 186 156 150 139 141 145 144 140 138 137 140 140 139 141 146 146 140 135 133 139 145 145 139 132 122 113 106 96 85 81 74 68 64
251 257 255 243 229 227 231 237 245 248 230 150 133 127 127 137 147 148 150 152 150 148 145 146 148 153 146 142 134 132 138 136 130 129 128 123 116 105 94 85 79 79 75 71
248 247 252 243 233 231 235 235 238 237 213 148 148 130 133 139 151 156 158 158 154 154 152 151 153 149 146 143 137 136 131 125 127 129 127 126 122 115 106 96 89 85 81 81
249 251 246 245 241 234 237 242 237 231 193 157 138 124 125 138 147 151 154 155 155 157 153 148 145 140 137 141 140 139 133 129 129 132 129 120 111 109 105 102 98 90 85 85
240 242 242 245 233 230 223 231 238 223 149 117 123 125 123 122 126 139 146 144 150 152 149 143 143 138 139 139 138 139 139 137 133 134 131 129 124 118 114 110 104 98 92 89
237 242 240 228 238 241 218 213 214 194 142 141 149 160 117 108 116 114 124 125 133 138 137 135 137 137 139 138 136 140 139 133 128 126 130 131 127 121 115 115 114 107 98 95
237 242 247 243 222 228 224 183 108 82 88 98 76 68 103 111 105 105 112 112 115 117 121 123 128 131 135 134 134 133 131 128 124 122 123 124 121 122 126 125 120 114 108 100
233 242 237 322 224 202 79 68 76 76 82 85 91 93 94 97 104 112 118 119 119 114 114 119 126 132 133 128 124 123 124 127 127 129 134 132 129 130 137 139 136 132 130 123
231 231 53 43 62 75 84 80 80 85 91 101 107 104 99 91 93 102 111 119 121 122 120 119 120 125 130 120 122 127 128 130 130 129 123 131 141 149 157 161 161 152 149 137
176 137 97 76 71 67 71 79 83 91 101 111 112 111 105 99 96 99 105 111 117 122 122 121 121 117 114 119 125 132 135 137 135 136 131 122 125 137 148 154 161 150 144 144
164 124 110 96 86 80 77 83 87 89 96 102 107 114 117 113 108 102 103 106 114 121 127 130 128 122 124 129 135 140 143 144 143 145 143 128 105 63 81 70 69 114 117 122
179 119 125 106 90 86 85 86 91 97 96 105 109 113 113 111 109 106 104 109 121 128 130 134 134 130 131 138 143 149 154 160 164 164 154 147 136 105 56 69 78 77 77 89
74 80 86 88 85 80 89 96 95 96 103 111 112 117 114 110 111 113 115 116 121 127 129 130 132 134 135 139 144 153 160 171 176 169 166 163 158 152 138 96 73 70 78 94
63 77 88 84 81 83 82 86 93 90 92 105 114 119 119 116 112 113 119 121 123 126 129 132 135 139 141 142 148 159 171 178 189 173 172 169 167 168 164 159 150 130 102 121
60 58 87 82 78 87 101 109 114 115 107 109 111 115 118 120 121 121 120 119 121 125 129 132 133 132 138 148 156 167 180 184 189 172 170 170 169 171 167 166 159 147 143 148
93 87 98 105 108 137 163 155 143 137 129 121 116 114 114 118 120 118 119 130 139 141 139 137 137 139 146 147 156 166 167 166 180 177 171 169 172 175 171 167 162 157 166 164
245 217 189 182 192 229 182 163 149 143 139 132 128 127 129 130 128 126 130 129 126 131 139 143 144 143 152 163 174 174 160 154 167 176 173 172 174 177 175 180 183 176 168 163
238 237 234 197 212 212 98 95 133 134 137 137 135 138 141 145 148 143 142 138 137 145 151 152 141 149 163 167 170 166 165 167 181 180 173 174 184 187 187 187 191 180 166 166
243 244 240 189 152 104 91 52 118 125 124 135 145 150 152 153 153 154 158 162 167 173 171 148 146 167 167 149 170 181 185 181 183 182 173 170 189 197 197 200 197 185 176 167
239 244 204 168 143 121 101 130 143 133 146 153 152 150 156 161 158 159 166 181 197 180 148 140 165 182 173 160 196 206 196 194 190 184 186 185 193 198 198 203 204 203 192 184
235 222 179 164 150 134 120 200 173 175 184 176 173 175 179 182 177 172 185 191 149 130 142 153 184 179 163 161 221 226 206 200 196 196 196 194 195 200 199 206 214 209 204 209
256 170 151 159 130 107 83 123 193 192 189 188 191 195 191 189 187 186 186 168 143 134 161 174 166 138 136 174 214 226 213 202 196 195 187 183 184 189 193 201 209 220 231 226
33 82 86 74 81 79 58 6 291 200 190 202 207 214 205 194 193 195 187 148 144 149 168 148 129 128 132 210 219 199 197 195 191 183 169 168 174 178 186 198 211 218 218 224
48 70 77 75 81 93 84 354 347 54 151 174 204 206 197 189 184 190 163 136 131 144 153 127 135 140 174 221 214 189 195 195 189 186 184 184 185 180 182 191 211 218 220 232
70 78 98 124 152 189 166 171 179 197 198 190 192 189 198 193 185 157 125 126 132 148 151 142 153 166 188 193 191 189 199 172 73 280 178 191 204 190 184 192 206 210 206 197
70 73 78 56 28 345 268 245 218 171 164 163 155 158 163 137 133 130 133 144 149 159 156 147 163 180 195 200 201 196 184 160 176 221 208 211 226 212 182 184 192 195 184 172
153 123 165 186 232 254 243 225 235 211 179 156 146 148 138 122 123 132 139 142 146 154 156 157 168 184 201 204 198 195 191 180 191 203 206 221 233 171 140 164 190 173 162 145